Regional Weather Roundup
Issued by NWS

Home | Current Version | Previous Version | Text Only | Print | Product List | Glossary On
Versions: 1 2 3 4 5 6 7 8 9 10 11 12 13 14 15 16 17 18 19 20 21 22 23 24 25 26 27 28 29 30 31 32 33 34 35 36 37 38 39 40 41 42 43 44 45 46 47 48 49 50
000
ASUS44 KMEG 211810
RWRTN
TENNESSEE HOURLY STATE WEATHER ROUNDUP
NATIONAL WEATHER SERVICE MEMPHIS TN
100 PM CDT SAT OCT 21 2017

TNZ002-004-019-021-049-052-054-088>092-211900-
WEST TENNESSEE

CITY           SKY/WX    TMP DP  RH WIND       PRES   REMARKS
MEMPHIS INTL   MOSUNNY   79  61  53 SE15      30.10F
NWS MEMPHIS      N/A     78 N/A N/A MISG        N/A
JACKSON        PTSUNNY   76  60  57 S9        30.13F
DYERSBURG        N/A     78  58  49 S7        30.12F
SOMERVILLE     SUNNY     79  61  53 S8G14     30.11F
COVINGTON      MOSUNNY   79  61  53 S13       30.11F
UNION CITY     SUNNY     77  54  44 S12       30.11F
BOLIVAR        SUNNY     77  61  57 SE12      30.13F
PARIS          SUNNY     77  55  47 S13       30.13F
HUNTINGDON     SUNNY     77  57  50 S12G18    30.13F
LEXINGTON      SUNNY     75  57  53 VRB6G13   30.16F
SELMER         SUNNY     75  61  60 S8G14     30.15F
SAVANNAH       SUNNY     77  61  57 S10       30.15F
$$

TNZ008-025-027-028-033-062-065-066-211900-
NORTH MIDDLE TENNESSEE

CITY           SKY/WX    TMP DP  RH WIND       PRES   REMARKS
NASHVILLE      PTSUNNY   76  55  48 S14       30.21F
PORTLAND       SUNNY     72  54  53 S12       30.20F
CLARKSVILLE    CLOUDY    74  52  46 S10       30.18F
SMYRNA         CLOUDY    77  57  50 S9        30.21F
COOKEVILLE     SUNNY     77  50  38 S8G15     30.24F
GALLATIN       SUNNY     75  54  46 CALM      30.23F
CROSSVILLE     SUNNY     71  44  37 S12G18    30.29F
$$

TNZ061-075-076-078-094-096-097-211900-
SOUTH MIDDLE TENNESSEE

CITY           SKY/WX    TMP DP  RH WIND       PRES   REMARKS
FAYETTEVILLE   SUNNY     77  57  50 S12       30.22F
TULLAHOMA      SUNNY     75  52  43 SE8       30.24F
WINCHESTER     SUNNY     75  55  50 SE12        N/A
COLUMBIA       SUNNY     75  61  60 SE7G15    30.18F
SHELBYVILLE    SUNNY     77  59  53 SE12      30.21F
$$

TNZ017-018-042-046-047-211900-
NORTHEAST TENNESSEE

CITY           SKY/WX    TMP DP  RH WIND       PRES   REMARKS
TRI CITIES     PTSUNNY   75  47  36 CALM      30.30F
ELIZABETHTON   SUNNY     77  46  33 SE5       30.29F
$$

TNZ012-013-036-069-073-074-211900-
CENTRAL EAST TENNESSEE

CITY           SKY/WX    TMP DP  RH WIND       PRES   REMARKS
KNOXVILLE      CLOUDY    69  55  60 CALM      30.28F
OAK RIDGE      MOSUNNY   71  53  52 SE6       30.29F
DOWNTOWN KNOXV SUNNY     72  55  56 VRB3      30.28F
GATLINBURG     SUNNY     72  50  46 CALM      30.28F
MORRISTOWN     SUNNY     72  50  46 N5        30.28F
JACKSBORO      SUNNY     70  54  56 CALM      30.32F
$$

TNZ083-085-099-211900-
SOUTHEAST TENNESSEE

CITY           SKY/WX    TMP DP  RH WIND       PRES   REMARKS
CHATTANOOGA    MOSUNNY   76  51  41 SE9       30.26F
DAYTON         CLEAR     72  57  60 CALM      30.26F
$$

SKY/WX REPORTED AS FAIR MEANS FEW OR NO CLOUDS BELOW
12 THOUSAND FEET.




USA.gov is the U.S. government's official web portal to all federal, state and local government web resources and services.